Location: Newark
(46.7636°N, 1.8358°W)
Time: 11:42:04
(UTC+00:00)

Tiros 1 - Pass Details

Date: 23 October 2019
Orbit: 630 x 664 km, 48.4° (Epoch: 14 November)

Event Time Altitude Azimuth Distance (km) Brightness Sun altitude
Exits shadow 04:43:57 43° 287° (WNW) 932 7.5 -19.8°
Maximum altitude 04:45:32 86° 13° (NNE) 670 7.1 -19.5°
Drops below altitude 10° 04:50:21 10° 104° (ESE) 2,081 10.9 -18.7°
Sets 04:52:42 0° 104° (ESE) 2,991 12.0 -18.3°
